Regional Weather Roundup
Issued by NWS

Home | Current Version | Previous Version | Text Only | Print | Product List | Glossary On
Versions: 1 2 3 4 5 6 7 8 9 10 11 12 13 14 15 16 17 18 19 20 21 22 23 24 25 26 27 28 29 30 31 32 33 34 35 36 37 38 39 40 41 42 43 44 45 46 47 48 49 50
214
ASUS43 KDTX 281310
RWRMI
MICHIGAN HOURLY REGIONAL WEATHER ROUNDUP
NATIONAL WEATHER SERVICE DETROIT/PONTIAC MI
900 AM EDT THU APR 28 2016

NOTE: "FAIR" INDICATES FEW OR NO CLOUDS BELOW 12,000 FEET WITH NO
SIGNIFICANT WEATHER AND/OR OBSTRUCTION TO VISIBILITY.

MIZ047>049-052>055-059>063-066>070-074>076-081>083-281400-
SOUTHEAST LOWER MICHIGAN

CITY           SKY/WX    TMP DP  RH WIND       PRES   REMARKS
ADRIAN         LGT RAIN  41  36  82 E15       29.96R
ALMA           CLOUDY    40  24  51 E12       30.01S WCI  34
ANN ARBOR      LGT RAIN  40  34  79 E6        29.97R
BAD AXE        CLOUDY    41  25  52 E7        30.05R
CARO           CLOUDY    42  21  42 E6        30.03R
DETROIT CITY   LGT RAIN  41  30  65 E10       30.00R
DETROIT        LGT RAIN  42  34  73 NE10      29.98R
FLINT          LGT RAIN  43  25  49 E15       30.01S
GROSSE ILE     LGT RAIN  43  36  75 NE12      29.96S
HILLSDALE      LGT RAIN  39  35  86 E10G16    29.93R WCI  32
HOWELL         LGT RAIN  40  29  65 E8        29.97S WCI  34

CITY           SKY/WX    TMP DP  RH WIND       PRES   REMARKS
JACKSON        LGT RAIN  39  32  76 E10       29.96R WCI  32
LAMBERTVILLE   RAIN      44  39  83 E9        29.96R
LANSING        LGT RAIN  38  30  73 E7        30.00R WCI  33
LAPEER         CLOUDY    40  24  52 E5        30.03R
MASON          RAIN      38  32  80 NE3       29.99R
MONROE         LGT RAIN  42  37  84 E8        29.95F
MT. CLEMENS    LGT RAIN  42  27  56 E9        30.00R
PONTIAC        LGT RAIN  41  26  55 E14       29.98R
PORT HOPE        N/A     40  31  70 NE15      30.04S WCI  32
PORT HURON     CLOUDY    41  25  52 E9        30.03R
TRI CITIES     CLOUDY    44  22  41 E15       30.03S
MIDLAND        CLOUDY    43  30  59 E9        30.03R
TROY           DRIZZLE   43  24  47 E14       30.01S
SAGINAW HB     CLOUDY    41  27  56 NE10      30.02S
$$
MIZ043>046-050>051-056>058-064>065-071>073-077>080-281400-
SOUTHWEST LOWER MICHIGAN

CITY           SKY/WX    TMP DP  RH WIND       PRES   REMARKS
BATTLE CREEK   CLOUDY    38  32  79 E12       29.93F WCI  30
BENTON HARBOR  LGT RAIN  43  37  79 E18G26    29.85F
BIG RAPIDS     CLOUDY    42  16  34 E13       29.98S
COLDWATER      CLOUDY    40  36  86 E12       29.92F WCI  32
FREMONT        LGT RAIN  39  27  62 E10G18    29.96F WCI  32
HOLLAND        LGT RAIN  38  30  73 E16G22    29.94R WCI  29
GRAND RAPIDS   LGT RAIN  38  30  73 E14       29.96R WCI  30
IONIA          DRIZZLE   37  29  74 E14       29.98R WCI  28
KALAMAZOO      CLOUDY    42  29  59 VRB6G16   29.93R
LUDINGTON      DRIZZLE   43  22  43 E10G21    29.97S
MARSHALL       DRIZZLE   37  32  82 E6        29.94S WCI  33
MOUNT PLEASANT CLOUDY    41  30  66 E8        30.01S
MUSKEGON       LGT RAIN  38  31  76 E14       29.95F WCI  30
SOUTH HAVEN    DRIZZLE   41  38  87 E9        29.89S
$$
MIZ016>042-281400-
NORTHERN LOWER MICHIGAN

CITY           SKY/WX    TMP DP  RH WIND       PRES   REMARKS
ALPENA         CLOUDY    40  27  59 E16G25    30.10R WCI  31
BEAVER ISLAND  CLOUDY    42  28  57 E14G20    30.09R
BELLAIRE       CLOUDY    43  24  46 CALM      30.05S
CADILLAC       CLOUDY    41  20  43 E10       29.99R
CHARLEVOIX     CLOUDY    41  26  54 E15G21    30.10R
FRANKFORT      CLOUDY    43  22  43 E7        30.01S
GAYLORD        CLOUDY    37  26  64 NE8       30.05R WCI  31
GRAYLING       CLOUDY    38  26  63 E9        30.04S WCI  31
HARBOR SPRINGS MOSUNNY   41  27  55 E15       30.07F
HOUGHTON LAKE  CLOUDY    39  24  55 E12       30.03R WCI  32
MANISTEE       CLOUDY    45  16  31 E12       29.99S
OSCODA         CLOUDY    41  30  65 E13       30.07R
PELLSTON       MOSUNNY   40  24  53 E17       30.10R WCI  31
ROGERS CITY    CLOUDY    38  28  67 E12G18    30.12S WCI  30
TRAVERSE CITY  CLOUDY    41  24  51 NE6       30.03R
$$
MIZ007>008-015-281400-
EASTERN UPPER MICHIGAN

CITY           SKY/WX    TMP DP  RH WIND       PRES   REMARKS
KINROSS          N/A     37  25  60 E10       30.12R WCI  30
MACKINAC ISLAN CLOUDY    38  28  68 E13G20    30.11R WCI  30
NEWBERRY       MOSUNNY   35  26  71 E6        30.11S WCI  30
S. S. MARIE    CLOUDY    38  23  55 E7        30.13R WCI  33
MUNISING         N/A     41  22  46 SE3       30.10R
$$
MIZ004>006-011>014-085-281400-
CENTRAL UPPER MICHIGAN

CITY           SKY/WX    TMP DP  RH WIND       PRES   REMARKS
MANISTIQUE     MOSUNNY   42  24  48 E14       30.08S
ESCANABA       CLOUDY    37  27  65 NE7       30.07F WCI  32
MENOMINEE      CLOUDY    39  32  75 NE14      30.03S WCI  31
SAWYER-GWINN   SUNNY     36  25  64 E9        30.10S WCI  29
$$
MIZ001>003-009>011-084-281400-
WESTERN UPPER MICHIGAN

CITY           SKY/WX    TMP DP  RH WIND       PRES   REMARKS
IRON MOUNTAIN  CLOUDY    39  22  50 E7        30.04S WCI  34
HOUGHTON       CLOUDY    37  27  67 E10       30.11R WCI  30
COPPER HARBOR    N/A     38  29  70 VRB5      30.14R WCI  34
IRONWOOD       CLOUDY    37  16  41 E9        30.02S WCI  31
$$

ABBREVIATIONS USED IN REMARKS
   TC - TEMPERATURE IN CELSIUS
  WCI - WIND CHILL INDEX
   HX - HEAT INDEX
  VSB - VISIBILITY





USA.gov is the U.S. government's official web portal to all federal, state and local government web resources and services.